C/2019 U5 ( PanSTARRS )

Japanese version
Home page
Updated on November 14, 2024

---------------------------------------------------------------------

* Profile

Discovery Date October 22, 2019
Magnitude 21.1 mag
Discoverer Pan-STARRS 1 telescope (Haleakala)

* Pictures

* Orbital Elements

Epoch 2024 Mar. 31.0 TT = JDT 2460400.5
T 2023 Mar. 29.71125 TT                                 Rudenko
q   3.6239162            (2000.0)            P               Q
z  -0.0002659      Peri.  181.47134     -0.99908591     +0.00733112
 +/-0.0000004      Node     2.63242     -0.02336941     +0.73126301
e   1.0009635      Incl.  113.51489     -0.03579412     -0.68205621
>From 4785 observations 2019 Oct. 11-2024 Feb. 25, mean residual 0".4.

* Finding Charts

* Magnitudes Graph

        m1 = 2.5 + 5 log d + 12.0 log r

---------------------------------------------------------------------

The orbital elements are published on M.P.E.C. 2024-D126.
The charts are made with StellaNavigator Ver.10 (AstroArts).
The magnitudes graphs are made with Comet for Windows.

---------------------------------------------------------------------

Copyright(C) Seiichi Yoshida (comet@aerith.net). All rights reserved.